Location: Bintulu
(3.1667°N, 113.0333°E)
Time: 22:22:21
(UTC+00:00)

Daily predictions for brighter satellites

Satellite Brightness Start Highest point End
(mag) Time Altitude Azimuth Time Altitude Azimuth Time Altitude Azimuth
EO 1 Delta rocket 3.7 12:03:35 10° S 12:08:17 83° W 12:08:58 64° NNW
ATLAS 3B R/B 4.4 12:04:50 10° SSE 12:06:53 15° SE 12:06:53 15° SE
BLOCK DM-SL R/B 4.3 12:05:50 10° W 12:12:21 78° S 17:30:50 10° E
ARIANE 5 R/B 4.0 12:09:22 10° WSW 12:14:21 47° SSE 12:28:33 20° ESE
ARIANE 3 DEB 4.5 12:10:07 10° WSW 12:18:50 65° S 12:20:38 52° ESE
Yuri Rocket 3.8 12:16:49 10° WNW 12:24:49 87° SSW 12:25:15 79° SE
COSMOS 2428 3.3 12:19:45 10° S 12:23:50 46° SSE 12:23:50 46° SSE
Cosmos 1709 Rocket 3.9 12:25:40 67° NNW 12:26:33 82° W 12:32:46 10° S
ARIANE DEB (SPELDA) 3.9 12:11:17 10° W 12:27:56 49° SSW 12:28:45 45° SSE
Cosmos 2082 3.8 12:22:21 10° NNW 12:28:01 72° WSW 12:33:43 10° S
ARIANE DEB (SYLDA) 4.5 13:06:04 10° WSW 13:31:50 - E 13:07:46 27° WSW
Ariane H10+ 4.3 13:13:28 10° W 13:16:17 22° W 13:16:17 22° W
Atlas Centaur 2 3.4 19:39:13 52° ESE 19:39:13 52° ESE 19:45:02 10° ESE
Ariane H10+ 4.3 19:43:28 16° SE 19:43:28 16° SE 19:45:20 10° ESE
ARIANE 5 R/B 3.6 19:58:06 28° ESE 19:58:06 28° ESE 19:59:41 10° ESE
Cosmos 1980 Rocket 4.3 19:59:10 15° NE 20:01:25 19° ENE 20:05:19 10° ESE
ARIANE 5 R/B 3.6 20:04:54 66° E 20:04:54 66° E 20:19:14 10° E
GEOS 3 Rocket 4.4 20:05:55 10° SSE 20:09:20 45° SSE 20:09:20 45° SSE
Cosmos 1634 Rocket 4.1 20:10:43 69° NE 20:11:10 72° E 20:17:26 10° S
ATLAS 2AS CENTAUR R/B 3.2 20:06:39 10° S 20:13:50 61° ESE 20:20:50 10° NE
SL-16 R/B 2.8 20:23:03 10° SSE 20:29:14 65° ENE 20:32:39 28° N
Meteor 1-28 Rocket 4.5 20:34:24 10° SE 20:37:25 32° ENE 20:37:26 32° ENE
Cosmos 1697 Rocket 2.9 20:41:05 49° WSW 20:41:05 49° WSW 20:46:12 10° S
Cosmos 1544 Rocket 3.7 20:50:43 52° SW 20:50:43 52° SW 20:54:23 10° S
Cosmos 1428 Rocket 4.4 20:46:26 10° SSW 20:52:32 66° W 20:58:41 10° N
Chandra Rocket (1) 2.5 20:52:18 51° NW 20:53:31 83° NNE 21:05:24 10° ESE
SJ-11-01 4.2 20:50:23 10° NNE 20:55:01 88° E 20:59:39 10° S
Cosmos 44 4.0 20:51:20 10° S 20:55:24 45° ESE 20:59:36 10° NE
Nadezhda 4 Rocket 4.2 20:50:27 10° SSW 20:56:29 47° W 20:59:38 27° NNW
Cosmos 1092 Rocket 4.3 20:51:50 10° S 20:58:07 70° E 21:04:21 10° N
Cosmos 1354 Rocket 4.4 21:01:10 38° W 21:01:47 39° WSW 21:06:38 10° S
Aurora 2 Rocket 4.5 21:01:18 28° NW 21:02:03 29° NNW 21:07:14 10° NNE
CZ-3 R/B 3.6 20:54:28 20° NW 21:05:29 38° N 21:12:15 10° ENE
USA 59 Rocket 3.0 21:01:49 10° NNE 21:06:24 25° ENE 21:12:15 10° ESE
Cosmos 1892 Rocket 3.6 21:02:41 10° SSW 21:06:52 49° W 21:08:34 31° NNW
Cosmos 2142 Rocket 4.4 21:02:49 12° N 21:08:35 70° W 21:14:40 10° S
Cosmos 1939 Rocket 4.3 21:11:45 20° SW 21:11:45 20° SW 21:13:09 10° SW
Cosmos 372 Rocket 4.3 21:06:02 10° N 21:11:02 64° ENE 21:16:05 10° SSE
GPS 2-12 Rocket1 3.0 21:10:34 35° NW 21:12:24 73° NNE 21:17:00 10° ESE
Meteor 2-3 Rocket 4.3 21:13:01 10° SSW 21:18:10 34° W 21:23:17 10° NNW
UNK 3.7 21:13:54 10° SSE 21:18:29 89° ENE 21:23:04 10° NNW
ARIANE 3 DEB 1.7 21:20:05 45° NNE 21:20:05 45° NNE 21:22:03 10° E
ARIANE 5 R/B 2.9 21:20:26 19° WSW 21:22:28 54° S 21:32:53 10° E
IRS-1D 3.6 21:21:06 10° N 21:26:08 57° WNW 21:31:18 10° SSW
Atlas Centaur 2 4.1 21:21:09 14° W 21:26:18 28° SSW 21:33:05 10° SSE
SL-24 R/B - RUBIN 2 3.7 21:26:36 17° NW 21:30:03 63° WSW 21:34:58 10° SSE
SL-16 R/B 4.4 21:25:47 10° NNE 21:30:10 23° ENE 21:34:34 10° SE
SWIFT 2.1 21:29:34 11° WSW 21:32:44 62° SSE 21:36:04 10° ENE
Cosmos 405 Rocket 2.1 21:31:44 10° SSW 21:34:55 65° W 21:38:06 10° N
GPS 2-17 Rocket1 3.1 21:32:26 14° W 21:36:20 61° NNW 21:40:53 10° ENE
COSMOS 2455 3.0 21:34:39 10° NNW 21:40:39 81° ENE 21:46:38 10° SSE
Cosmos 1980 Rocket 3.1 21:40:58 12° NW 21:45:06 28° WSW 21:49:49 10° SSW
Cosmos 1933 4.0 21:42:07 10° NNW 21:45:26 29° W 21:48:48 10° SSW
Aureole 1 Rocket 4.5 21:39:39 10° NNW 21:46:36 47° W 21:52:45 10° S
SL-8 R/B 3.7 21:44:50 10° NW 21:49:29 75° SW 21:54:13 10° SSE
Ariane H10+ 3.8 21:44:22 10° WSW 21:49:30 44° SSE 21:59:13 10° E
Cosmos 2297 Rocket 4.4 21:45:12 10° SSE 21:50:04 30° ESE 21:54:55 10° NE
Cosmos 1570 Rocket 4.1 21:45:37 10° SSW 21:50:53 89° ESE 21:56:11 10° NNE
IUS-26 SRM-1 3.3 21:50:51 11° W 21:52:48 22° NNW 21:54:56 10° NNE
DELTA 2 R/B (1) 4.1 21:56:23 10° WSW 22:01:28 36° NW 22:06:33 10° NNE
IRIDIUM 103 4.4 21:56:20 10° S 22:01:33 88° W 22:06:46 10° N
Cosmos 2369 4.2 21:58:03 10° NW 22:03:15 40° WSW 22:08:28 10° S
USA 290 3.5 22:00:38 10° S 22:03:41 45° ESE 22:06:44 10° NNE
ATLAS 2AS CENTAUR R/B 4.1 22:00:49 10° W 22:04:32 15° WNW 22:08:15 10° NNW
Centaur AC-102 4.3 22:01:38 10° W 22:06:09 42° SSW 22:13:23 10° ESE
